UAL1483 KDEN-KMTJ

Flight info

Callsign UAL1483
Flight time 0h 42m
Altitude 28000
Route BAYLR6 TEHRU DIRDY
Aircraft B738/M-SDE2E3FGHIRWXY/LB1

Departure

Time 2026-05-08 03:03
Airport Denver International Airport (KDEN)

Arrival

Time 2026-05-08 03:45
Airport Montrose Regional Airport (KMTJ)
Time Latitude Longitude Altitude Speed Heading
2026-05-08 02:45 39.85336 -104.67512 5385 ft 0 kts
2026-05-08 02:55 39.85324 -104.67512 5383 ft 4 kts
2026-05-08 02:55 39.85309 -104.67512 5384 ft 4 kts 359°
2026-05-08 02:56 39.85283 -104.67511 5384 ft 4 kts 355°
2026-05-08 02:56 39.85260 -104.67507 5381 ft 4 kts 344°
2026-05-08 02:56 39.85240 -104.67496 5383 ft 4 kts 302°
2026-05-08 02:56 39.85236 -104.67485 5382 ft 1 kts 272°
2026-05-08 02:59 39.85237 -104.67489 5383 ft 3 kts 272°
2026-05-08 02:59 39.85238 -104.67568 5384 ft 14 kts 271°
2026-05-08 02:59 39.85238 -104.67725 5385 ft 19 kts 270°
2026-05-08 03:00 39.85240 -104.67892 5383 ft 18 kts 271°
2026-05-08 03:00 39.85241 -104.68053 5384 ft 18 kts 268°
2026-05-08 03:00 39.85235 -104.68208 5385 ft 17 kts 261°
2026-05-08 03:00 39.85208 -104.68356 5381 ft 17 kts 265°
2026-05-08 03:01 39.85207 -104.68528 5374 ft 22 kts 270°
2026-05-08 03:01 39.85203 -104.68747 5364 ft 26 kts 268°
2026-05-08 03:01 39.85197 -104.68981 5354 ft 25 kts 270°
2026-05-08 03:01 39.85197 -104.69200 5348 ft 23 kts 270°
2026-05-08 03:02 39.85202 -104.69407 5342 ft 22 kts 271°
2026-05-08 03:02 39.85207 -104.69607 5350 ft 22 kts 282°
2026-05-08 03:02 39.85352 -104.69658 5352 ft 37 kts
2026-05-08 03:02 39.85876 -104.69652 5361 ft 112 kts
2026-05-08 03:03 39.86885 -104.69647 5385 ft 175 kts
2026-05-08 03:03 39.88218 -104.69645 5872 ft 201 kts 357°
2026-05-08 03:03 39.89601 -104.69637 6757 ft 196 kts 359°
2026-05-08 03:03 39.90936 -104.69907 7451 ft 202 kts 334°
2026-05-08 03:04 39.92069 -104.71094 7622 ft 224 kts 302°
2026-05-08 03:04 39.92449 -104.73143 7836 ft 251 kts 265°
2026-05-08 03:04 39.91750 -104.75357 8109 ft 282 kts 234°
2026-05-08 03:04 39.90266 -104.77069 9036 ft 288 kts 220°
2026-05-08 03:05 39.88643 -104.78592 9716 ft 287 kts 220°
2026-05-08 03:05 39.87048 -104.80152 9835 ft 285 kts 222°
2026-05-08 03:05 39.85504 -104.81743 9867 ft 283 kts 223°
2026-05-08 03:05 39.83969 -104.83379 9875 ft 288 kts 224°
2026-05-08 03:06 39.82428 -104.85051 9885 ft 289 kts 224°
2026-05-08 03:06 39.80892 -104.86726 9951 ft 287 kts 224°
2026-05-08 03:06 39.79365 -104.88393 9945 ft 286 kts 224°
2026-05-08 03:06 39.77927 -104.90117 9930 ft 281 kts 237°
2026-05-08 03:07 39.77061 -104.92388 10017 ft 281 kts 255°
2026-05-08 03:07 39.76499 -104.94893 10211 ft 305 kts 258°
2026-05-08 03:07 39.75927 -104.97642 10653 ft 322 kts 257°
2026-05-08 03:07 39.75323 -105.00470 11464 ft 327 kts 257°
2026-05-08 03:08 39.74675 -105.03317 12291 ft 331 kts 253°
2026-05-08 03:08 39.73826 -105.06120 13125 ft 336 kts 250°
2026-05-08 03:08 39.72882 -105.08927 13889 ft 341 kts 249°
2026-05-08 03:08 39.71915 -105.11764 14616 ft 345 kts 249°
2026-05-08 03:09 39.70947 -105.14633 15362 ft 349 kts 250°
2026-05-08 03:09 39.69979 -105.17539 16111 ft 352 kts 250°
2026-05-08 03:09 39.69011 -105.20476 16851 ft 356 kts 250°
2026-05-08 03:09 39.68036 -105.23444 17594 ft 359 kts 250°
2026-05-08 03:10 39.67048 -105.26451 18251 ft 365 kts 250°
2026-05-08 03:10 39.66048 -105.29492 18852 ft 368 kts 251°
2026-05-08 03:10 39.65034 -105.32570 19427 ft 373 kts 251°
2026-05-08 03:10 39.64007 -105.35684 20039 ft 377 kts 251°
2026-05-08 03:11 39.62970 -105.38823 20736 ft 380 kts 251°
2026-05-08 03:11 39.61928 -105.41981 21360 ft 383 kts 251°
2026-05-08 03:11 39.60874 -105.45174 21974 ft 386 kts 250°
2026-05-08 03:11 39.59820 -105.48363 22748 ft 384 kts 251°
2026-05-08 03:12 39.58769 -105.51526 23621 ft 381 kts 251°
2026-05-08 03:12 39.57724 -105.54661 24339 ft 377 kts 251°
2026-05-08 03:12 39.56688 -105.57767 25067 ft 373 kts 251°
2026-05-08 03:12 39.55663 -105.60836 25755 ft 370 kts 251°
2026-05-08 03:13 39.54694 -105.63908 26461 ft 366 kts 253°
2026-05-08 03:13 39.53826 -105.66985 27114 ft 364 kts 255°
2026-05-08 03:13 39.52987 -105.70080 27702 ft 364 kts 256°
2026-05-08 03:13 39.52165 -105.73133 28086 ft 365 kts 256°
2026-05-08 03:14 39.51322 -105.76239 28044 ft 364 kts 255°
2026-05-08 03:14 39.49632 -105.82389 28106 ft 363 kts 255°
2026-05-08 03:15 39.47919 -105.88562 28047 ft 366 kts 255°
2026-05-08 03:15 39.47060 -105.91646 28278 ft 364 kts 252°
2026-05-08 03:15 39.46192 -105.94761 28012 ft 369 kts 254°
2026-05-08 03:16 39.44462 -106.00931 28075 ft 363 kts 256°
2026-05-08 03:16 39.42748 -106.07050 28084 ft 361 kts 256°
2026-05-08 03:17 39.41045 -106.13121 28068 ft 358 kts 256°
2026-05-08 03:17 39.39333 -106.19199 28105 ft 362 kts 256°
2026-05-08 03:18 39.37600 -106.25348 28090 ft 366 kts 256°
2026-05-08 03:18 39.36727 -106.28439 28251 ft 367 kts 256°
2026-05-08 03:18 39.35850 -106.31543 28248 ft 368 kts 255°
2026-05-08 03:18 39.34744 -106.34542 28250 ft 374 kts 243°
2026-05-08 03:19 39.33277 -106.37330 28276 ft 376 kts 242°
2026-05-08 03:19 39.30303 -106.42863 28261 ft 374 kts 242°
2026-05-08 03:20 39.27849 -106.47445 28257 ft 372 kts 242°
2026-05-08 03:20 39.24914 -106.52956 28229 ft 372 kts 242°
2026-05-08 03:21 39.21986 -106.58460 28194 ft 372 kts 242°
2026-05-08 03:21 39.19057 -106.63962 28129 ft 371 kts 242°
2026-05-08 03:22 39.16131 -106.69454 28147 ft 372 kts 242°
2026-05-08 03:22 39.13194 -106.74955 28152 ft 373 kts 242°
2026-05-08 03:23 39.10255 -106.80456 28157 ft 374 kts 242°
2026-05-08 03:23 39.07329 -106.85905 27826 ft 364 kts 242°
2026-05-08 03:23 39.05894 -106.88575 27363 ft 363 kts 242°
2026-05-08 03:24 39.04466 -106.91228 27032 ft 359 kts 242°
2026-05-08 03:24 39.03052 -106.93858 26687 ft 357 kts 242°
2026-05-08 03:24 39.01645 -106.96476 26324 ft 355 kts 242°
2026-05-08 03:24 39.00246 -106.99080 25971 ft 354 kts 242°
2026-05-08 03:25 38.98850 -107.01674 25587 ft 352 kts 242°
2026-05-08 03:25 38.97459 -107.04253 25243 ft 350 kts 242°
2026-05-08 03:25 38.96078 -107.06815 24886 ft 348 kts 242°
2026-05-08 03:25 38.94702 -107.09363 24552 ft 347 kts 242°
2026-05-08 03:26 38.93328 -107.11905 24190 ft 346 kts 242°
2026-05-08 03:26 38.91960 -107.14440 23857 ft 344 kts 242°
2026-05-08 03:26 38.90598 -107.16955 23469 ft 341 kts 242°
2026-05-08 03:26 38.89248 -107.19442 23058 ft 339 kts 241°
2026-05-08 03:27 38.87908 -107.21918 22715 ft 336 kts 241°
2026-05-08 03:27 38.86596 -107.24337 22368 ft 334 kts 241°
2026-05-08 03:27 38.85258 -107.26800 22023 ft 331 kts 241°
2026-05-08 03:27 38.83968 -107.29173 21717 ft 327 kts 241°
2026-05-08 03:28 38.82653 -107.31590 21372 ft 326 kts 240°
2026-05-08 03:28 38.81380 -107.33931 21021 ft 324 kts 240°
2026-05-08 03:28 38.80096 -107.36291 20703 ft 322 kts 240°
2026-05-08 03:28 38.78818 -107.38638 20404 ft 320 kts 240°
2026-05-08 03:29 38.77544 -107.40974 20037 ft 319 kts 240°
2026-05-08 03:29 38.76278 -107.43297 19723 ft 317 kts 240°
2026-05-08 03:29 38.75018 -107.45611 19423 ft 316 kts 240°
2026-05-08 03:29 38.73758 -107.47904 19059 ft 314 kts 239°
2026-05-08 03:30 38.71263 -107.52465 18451 ft 312 kts 239°
2026-05-08 03:30 38.68776 -107.57008 17748 ft 311 kts 239°
2026-05-08 03:31 38.66297 -107.61527 17053 ft 308 kts 239°
2026-05-08 03:31 38.63842 -107.65997 16349 ft 307 kts 239°
2026-05-08 03:32 38.62616 -107.68227 16022 ft 306 kts 239°
2026-05-08 03:32 38.61396 -107.70444 15698 ft 305 kts 239°
2026-05-08 03:32 38.60179 -107.72655 15380 ft 304 kts 239°
2026-05-08 03:32 38.58965 -107.74860 15055 ft 303 kts 239°
2026-05-08 03:33 38.57748 -107.77064 14735 ft 303 kts 238°
2026-05-08 03:33 38.56531 -107.79262 14423 ft 303 kts 239°
2026-05-08 03:33 38.55321 -107.81462 14237 ft 303 kts 239°
2026-05-08 03:33 38.54111 -107.83658 13932 ft 302 kts 238°
2026-05-08 03:34 38.52900 -107.85849 13574 ft 302 kts 238°
2026-05-08 03:34 38.51689 -107.88031 13238 ft 301 kts 236°
2026-05-08 03:34 38.50139 -107.89820 12971 ft 304 kts 211°
2026-05-08 03:34 38.48194 -107.90792 12977 ft 300 kts 198°
2026-05-08 03:35 38.46169 -107.91416 12954 ft 302 kts 195°
2026-05-08 03:35 38.44122 -107.91987 12932 ft 308 kts 195°
2026-05-08 03:35 38.41815 -107.92629 12896 ft 311 kts 195°
2026-05-08 03:35 38.39710 -107.93227 12839 ft 309 kts 195°
2026-05-08 03:36 38.37616 -107.93833 12797 ft 308 kts 195°
2026-05-08 03:36 38.35534 -107.94444 12769 ft 307 kts 196°
2026-05-08 03:36 38.33460 -107.95058 12737 ft 306 kts 196°
2026-05-08 03:36 38.31388 -107.95674 12699 ft 306 kts 196°
2026-05-08 03:37 38.29320 -107.96289 12665 ft 306 kts 195°
2026-05-08 03:37 38.27250 -107.96905 12633 ft 306 kts 196°
2026-05-08 03:37 38.25175 -107.97521 12604 ft 306 kts 195°
2026-05-08 03:37 38.23056 -107.97840 12550 ft 311 kts 175°
2026-05-08 03:38 38.21003 -107.96983 12534 ft 314 kts 148°
2026-05-08 03:38 38.19425 -107.95079 12449 ft 317 kts 122°
2026-05-08 03:38 38.18641 -107.92493 12354 ft 313 kts 96°
2026-05-08 03:38 38.18560 -107.89764 12272 ft 309 kts 87°
2026-05-08 03:39 38.18597 -107.87023 12167 ft 308 kts 83°
2026-05-08 03:39 38.19177 -107.84482 12031 ft 294 kts 56°
2026-05-08 03:39 38.20486 -107.82597 11928 ft 279 kts 33°
2026-05-08 03:39 38.22195 -107.81502 11568 ft 276 kts 13°
2026-05-08 03:40 38.24080 -107.81177 11191 ft 272 kts 356°
2026-05-08 03:40 38.25886 -107.81645 10853 ft 266 kts 340°
2026-05-08 03:40 38.27611 -107.82445 10502 ft 263 kts 339°
2026-05-08 03:40 38.29311 -107.83252 10143 ft 258 kts 339°
2026-05-08 03:41 38.30968 -107.84039 9792 ft 251 kts 339°
2026-05-08 03:41 38.32568 -107.84793 9489 ft 239 kts 339°
2026-05-08 03:41 38.34090 -107.85505 9194 ft 227 kts 339°
2026-05-08 03:41 38.35541 -107.86183 8945 ft 218 kts 339°
2026-05-08 03:42 38.36946 -107.86839 8736 ft 212 kts 339°
2026-05-08 03:42 38.38355 -107.87321 8455 ft 208 kts 352°
2026-05-08 03:42 38.39769 -107.87546 8121 ft 202 kts 352°
2026-05-08 03:42 38.41133 -107.87776 7796 ft 193 kts 352°
2026-05-08 03:43 38.42423 -107.88001 7508 ft 181 kts 352°
2026-05-08 03:43 38.43627 -107.88216 7319 ft 167 kts 352°
2026-05-08 03:43 38.44729 -107.88412 7081 ft 156 kts 352°
2026-05-08 03:43 38.45786 -107.88602 6817 ft 151 kts 351°
2026-05-08 03:44 38.46833 -107.88792 6564 ft 153 kts 351°
2026-05-08 03:44 38.47886 -107.88979 6319 ft 153 kts 352°
2026-05-08 03:44 38.48931 -107.89167 6076 ft 151 kts 352°
2026-05-08 03:44 38.49965 -107.89265 5888 ft 147 kts 360°
2026-05-08 03:45 38.50970 -107.89267 5740 ft 136 kts
2026-05-08 03:45 38.51696 -107.89271 5725 ft 90 kts 360°
2026-05-08 03:45 38.52128 -107.89273 5722 ft 40 kts 358°
2026-05-08 03:45 38.52284 -107.89310 5717 ft 15 kts 312°
2026-05-08 03:46 38.52259 -107.89412 5719 ft 14 kts 196°
2026-05-08 03:46 38.52165 -107.89413 5722 ft 13 kts 176°
2026-05-08 03:46 38.52074 -107.89409 5723 ft 13 kts 179°
2026-05-08 03:46 38.51981 -107.89409 5720 ft 16 kts 179°
2026-05-08 03:47 38.51845 -107.89408 5723 ft 23 kts 180°
2026-05-08 03:47 38.51663 -107.89409 5725 ft 29 kts 180°
2026-05-08 03:47 38.51451 -107.89409 5726 ft 32 kts 180°
2026-05-08 03:47 38.51220 -107.89409 5733 ft 35 kts 180°
2026-05-08 03:48 38.50982 -107.89408 5737 ft 33 kts 180°
2026-05-08 03:48 38.50763 -107.89406 5736 ft 30 kts 179°
2026-05-08 03:48 38.50565 -107.89409 5739 ft 28 kts 182°
2026-05-08 03:48 38.50421 -107.89552 5740 ft 26 kts 230°
2026-05-08 03:49 38.50306 -107.89725 5731 ft 26 kts 229°
2026-05-08 03:49 38.50197 -107.89884 5730 ft 18 kts 220°
2026-05-08 03:49 38.50139 -107.89874 5732 ft 0 kts 138°
2026-05-08 03:49 38.50124 -107.89857 5728 ft 9 kts 139°
2026-05-08 03:50 38.50065 -107.89845 5728 ft 7 kts 215°
2026-05-08 03:50 38.50060 -107.89851 5731 ft 0 kts 224°